Volver al catálogo

STARLINK-2213

ActivoComunicacionesVLEO
NORAD 47780·PAYLOAD·🇺🇸 United States

Lanzado Mar 4, 2021 desde Cape Canaveral Space Force Station

Loading…

Próximos Pases (próximas 24 horas)

TLE

ActualizadoSource: CelesTrak SupGP

Época: Sep 14, 2026, 21:06 UTC

1 47780C 21017BL  26257.87965278  .00050581  00000+0  16262-2 0  2575
2 47780  53.1585  43.3849 0001267  78.3649  93.6470 15.31684527    11

Sigue STARLINK-2213 en tiempo real con AllMySat

Download on the App Store